Simultaneous Nadir Overpasses (SNOs) Predictions

Prediction of SNOs between METOP-C and LANDSAT-8 Satellite Orbit:

Table of predicted SNOs for the next 14.0 days since TLE Epoch: 1/7/2023
Index Date (METOP-C) Time (METOP-C) Lat,Lon (METOP-C) SZA (METOP-C ) Date (LANDSAT-8) Time (LANDSAT-8) Lat,Lon (LANDSAT-8) SZA (LANDSAT-8 ) Distance(km) Time Diff (sec)
1 01/08/2023 01:50:59 81.10,-168.44 105.12 01/08/2023 01:51:55 81.09,-168.61 105.12 2.97 56
2 01/08/2023 02:41:38 -81.11, -0.84 74.86 01/08/2023 02:41:21 -81.12, -0.66 74.84 3.13 17
3 01/10/2023 21:25:21 81.09,-102.39 104.65 01/10/2023 21:26:09 81.09,-102.21 104.69 3.15 48
4 01/10/2023 22:15:59 -81.11, 65.63 75.28 01/10/2023 22:15:35 -81.11, 65.76 75.27 2.30 24
5 01/13/2023 16:59:41 81.10, -35.66 104.21 01/13/2023 17:00:22 81.10, -35.62 104.23 0.79 41
6 01/13/2023 17:50:19 -81.12, 132.41 75.71 01/13/2023 17:49:48 -81.13, 132.38 75.73 0.58 31
7 01/16/2023 12:34:01 81.09, 30.62 103.67 01/16/2023 12:34:34 81.10, 30.80 103.70 3.16 33
8 01/16/2023 13:24:39 -81.12,-161.25 76.25 01/16/2023 13:24:00 -81.13,-161.19 76.26 1.18 39
9 01/19/2023 08:08:20 81.11, 97.58 103.15 01/19/2023 08:08:46 81.11, 97.41 103.14 2.95 26



Historial Predications of SNOs between METOP-C and LANDSAT-8
